Tracking 17782 objects as of 26-July-2016
HD Live streaming from Space Station
objects crossing your sky now

SL-3 R/B

Track SL-3 R/B now!
10-day predictions


NORAD ID: 8027
Int'l Code: 1975-064B
Perigee: 836.2 km
Apogee: 915.3 km
Inclination: 81.3 °
Period: 102.3 minutes
Semi major axis: 7246 km
RCS: 6.004 m2 (large)
Launch date: July 11, 1975
Source: Commonwealth of Independent States (former USSR) (CIS)
Launch site: PLESETSK MISSILE AND SPACE COMPLEX (PKMTR)

Note: This is a ROCKET BODY
Your satellite tracking list
Your tracking list is empty





NASA's NSSDC Master Catalog

Two Line Element Set (TLE):
1 08027U 75064B   16207.49697350  .00000143  00000-0  76526-4 0  9996
2 08027  81.2982  10.3228 0054602 110.0153 250.6907 14.07298207106537
Source of the keplerian elements: AFSPC

N2YO: 704